Ketchikan, AK

10:34 AM AKDT on October 19, 2018 (GMT -0800)
Ketchikan International

Weather History for PAKT - April, 2018

Change the Weather History Date:

Saturday, April 21, 2018

  Actual Average Record
Temperature  
Mean Temperature 42 °F -  
Max Temperature 50 °F 49 °F 73 °F (1956)
Min Temperature 37 °F 36 °F 28 °F (2008)
Degree Days  
Heating Degree Days 22    
Moisture  
Dew Point 38 °F    
Average Humidity 85    
Maximum Humidity 97    
Minimum Humidity 71    
Precipitation  
Precipitation 0.13 in - - ()
Sea Level Pressure  
Sea Level Pressure 30.07 in    
Wind  
Wind Speed 6 mph (SE)    
Max Wind Speed 18 mph    
Max Gust Speed -    
Visibility 10 miles    
Events Rain    
Averages and records for this station are not official NWS values.
T = Trace of Precipitation, MM = Missing Value Source: NWS Daily Summary

Daily Weather History Graph

Daily Weather History Graph

Search for Another Location

Airport or City:

Astronomy

Apr. 21, 2018 Rise Set
Actual Time 5:27 AM AKDT 8:04 PM AKDT
Civil Twilight 4:47 AM AKDT 8:45 PM AKDT
Nautical Twilight 3:54 AM AKDT 9:38 PM AKDT
Astronomical Twilight 2:47 AM AKDT 10:46 PM AKDT
Moon 9:49 AM AKDT (4/21) 1:46 AM AKDT (4/21)
Length of Visible Light 15h 58m
Length of Day
14h 36m
Waxing Crescent, 38% of the Moon is Illuminated
Apr 21
Waxing Crescent
Apr 22
First Quarter
Apr 29
Full
May 7
Last Quarter
May 15
New

Hourly Weather History & Observations

Time (AKDT) Temp. Windchill Dew Point Humidity Pressure Visibility Wind Dir Wind Speed Gust Speed Precip Events Conditions
12:53 AM 37.9 °F - 36.0 °F 93% 29.76 in 6.0 mi Calm Calm - 0.07 in Rain Light Rain
1:40 AM 37.9 °F 34.4 °F 36.0 °F 93% 29.77 in 10.0 mi WNW 4.6 mph - 0.03 in Rain Light Rain
1:53 AM 37.9 °F 33.5 °F 36.0 °F 93% 29.78 in 10.0 mi WNW 5.8 mph - 0.03 in   Overcast
2:11 AM 37.9 °F 35.5 °F 36.0 °F 93% 29.78 in 10.0 mi NW 3.5 mph - N/A   Overcast
2:19 AM 37.9 °F 34.4 °F 37.0 °F 97% 29.78 in 10.0 mi WNW 4.6 mph - N/A   Overcast
2:53 AM 39.0 °F 34.8 °F 37.0 °F 93% 29.80 in 10.0 mi NNW 5.8 mph - 0.01 in Rain Light Rain
3:02 AM 39.0 °F 33.4 °F 37.0 °F 93% 29.80 in 10.0 mi NNW 8.1 mph - 0.00 in Rain Light Rain
3:50 AM 39.2 °F 35.9 °F 37.4 °F 93% 29.83 in 10.0 mi NW 4.6 mph - 0.01 in   Overcast
3:53 AM 39.9 °F 35.1 °F 37.9 °F 93% 29.84 in 10.0 mi NW 6.9 mph - 0.01 in   Overcast
4:02 AM 39.9 °F 33.9 °F 37.9 °F 93% 29.84 in 10.0 mi North 9.2 mph - N/A   Overcast
4:53 AM 39.9 °F 36.7 °F 37.9 °F 93% 29.87 in 10.0 mi Variable 4.6 mph - 0.00 in   Overcast
5:22 AM 39.9 °F 37.8 °F 37.9 °F 93% 29.89 in 10.0 mi West 3.5 mph - N/A   Overcast
5:53 AM 39.9 °F - 37.9 °F 93% 29.92 in 10.0 mi Calm Calm - N/A   Overcast
6:53 AM 39.0 °F - 37.0 °F 93% 29.97 in 10.0 mi Calm Calm - N/A   Scattered Clouds
7:53 AM 43.0 °F 38.8 °F 37.9 °F 82% 30.01 in 10.0 mi ESE 6.9 mph - N/A   Partly Cloudy
8:53 AM 44.6 °F 40.2 °F 39.2 °F 81% 30.04 in 10.0 mi ESE 8.1 mph - N/A   Partly Cloudy
9:53 AM 46.4 °F 41.5 °F 37.4 °F 71% 30.07 in 10.0 mi ESE 10.4 mph - N/A   Mostly Cloudy
10:53 AM 43.0 °F 40.3 °F 37.0 °F 80% 30.12 in 5.0 mi SE 4.6 mph - 0.01 in Rain Light Rain
11:53 AM 46.4 °F 40.7 °F 37.4 °F 71% 30.14 in 10.0 mi SE 12.7 mph - N/A   Overcast
12:53 PM 46.4 °F 39.8 °F 39.2 °F 76% 30.16 in 10.0 mi SE 16.1 mph - N/A Rain Light Rain
1:53 PM 48.2 °F - 39.2 °F 71% 30.19 in 10.0 mi ESE 10.4 mph - N/A   Mostly Cloudy
2:53 PM 48.2 °F - 41.0 °F 76% 30.21 in 10.0 mi ESE 17.3 mph - N/A   Mostly Cloudy
3:53 PM 48.2 °F - 39.2 °F 71% 30.22 in 10.0 mi SE 18.4 mph - N/A   Mostly Cloudy
4:53 PM 46.4 °F 40.1 °F 39.2 °F 76% 30.25 in 10.0 mi SE 15.0 mph - N/A   Mostly Cloudy
5:53 PM 46.4 °F 39.8 °F 39.2 °F 76% 30.26 in 10.0 mi ESE 16.1 mph - N/A   Mostly Cloudy
6:53 PM 44.6 °F 39.7 °F 39.2 °F 81% 30.28 in 10.0 mi SE 9.2 mph - N/A   Overcast
7:53 PM 44.6 °F 40.2 °F 39.2 °F 81% 30.30 in 10.0 mi SE 8.1 mph - N/A   Overcast
8:53 PM 44.6 °F 39.7 °F 39.2 °F 81% 30.31 in 10.0 mi SE 9.2 mph - N/A   Overcast
9:53 PM 43.0 °F 38.8 °F 39.0 °F 86% 30.32 in 10.0 mi SSE 6.9 mph - N/A   Overcast
10:00 PM 43.0 °F 38.2 °F 39.0 °F 86% 30.32 in 10.0 mi SSE 8.1 mph - N/A   Overcast
10:38 PM 43.0 °F 37.7 °F 39.9 °F 89% 30.32 in 10.0 mi SE 9.2 mph - 0.00 in   Overcast
10:53 PM 44.1 °F 39.5 °F 39.9 °F 85% 30.33 in 10.0 mi SE 8.1 mph - 0.00 in   Overcast
11:10 PM 44.1 °F 40.1 °F 39.9 °F 85% 30.33 in 10.0 mi ESE 6.9 mph - N/A   Overcast
11:28 PM 42.1 °F 37.7 °F 39.0 °F 89% 30.33 in 10.0 mi SSE 6.9 mph - N/A   Overcast
11:53 PM 42.1 °F - 39.9 °F 92% 30.33 in 10.0 mi Calm Calm - N/A   Overcast